Theta_e
301 304 302 300 301 302 301 302 300 299 300 301 304 304 302 302 300 297 295 295 295 296 297 299 301 303 303 302 303 303 304 304 305 308 309 322 326 328 329 331 329 330 329 328
304 301 300 300 301 301 301 300 299 299 299 298 298 298 297 300 295 294 293 292 293 294 294 296 298 301 303 302 303 303 304 304 305 310 312 325 324 326 328 328 329 329 327 327
301 300 299 299 300 300 299 299 300 297 296 297 296 300 301 296 293 292 291 290 290 291 292 294 296 299 301 302 303 303 304 306 306 315 316 323 326 327 327 327 327 327 327 326
301 300 299 299 300 299 298 297 296 297 298 298 299 302 295 293 291 290 289 288 287 289 292 293 295 298 300 302 303 303 304 304 311 318 319 325 326 325 325 326 326 326 325 325
302 300 299 298 298 298 296 295 296 297 299 299 300 302 294 290 289 288 287 286 286 291 299 294 295 297 299 301 302 304 306 313 317 320 323 325 325 325 325 325 325 324 324 324
301 300 299 298 298 297 295 295 299 302 302 302 304 303 293 290 288 286 286 285 286 292 297 300 300 299 300 301 302 311 311 309 313 320 319 320 322 324 321 321 316 316 317 320
300 300 299 298 297 296 294 294 298 301 304 304 301 296 291 288 286 285 285 284 286 289 294 296 299 302 306 307 306 305 303 301 301 304 304 304 308 310 305 302 301 299 299 301
298 298 298 298 296 293 294 292 291 296 301 301 299 296 293 287 285 284 284 285 285 287 290 293 294 295 299 300 299 299 299 298 297 296 296 296 297 296 295 295 293 292 292 292
299 298 298 297 297 292 292 292 293 295 297 299 299 294 295 287 284 283 283 284 284 285 287 290 291 291 292 293 295 294 293 292 293 293 292 292 291 291 291 291 291 291 290 289
297 296 299 298 295 293 293 292 293 293 290 296 300 291 287 284 282 281 281 282 283 284 285 287 288 288 288 289 290 289 288 289 289 288 288 288 288 288 288 289 288 289 288 287
299 297 298 297 291 290 291 290 293 293 292 295 295 290 284 282 281 280 280 281 282 283 284 285 285 285 285 285 286 286 286 286 285 285 284 284 283 283 283 283 284 284 284 285
298 295 300 294 293 294 292 289 289 289 290 289 290 290 283 280 280 279 279 280 281 282 282 283 283 283 283 283 284 284 284 284 284 283 283 282 281 281 280 280 280 281 281 280
295 300 298 296 296 295 291 291 289 290 292 292 293 293 284 281 279 278 278 279 279 280 281 281 281 282 282 282 282 283 283 282 282 282 281 281 281 280 279 279 278 278 278 277
296 298 293 294 293 294 290 289 289 290 289 286 288 286 284 280 278 277 277 278 278 279 279 279 280 281 281 281 281 281 281 281 281 281 280 280 280 279 279 279 279 278 278 278
295 297 291 291 291 294 293 285 287 287 287 289 286 287 283 279 277 277 276 277 277 278 278 278 279 280 280 281 280 280 280 280 279 279 279 279 279 279 278 278 278 278 278 278
296 297 291 291 291 288 292 290 288 287 284 287 288 286 283 280 277 276 276 276 276 277 277 278 278 279 280 280 280 279 279 278 278 278 278 278 278 278 278 278 278 278 278 277
295 293 292 299 292 293 294 290 284 284 283 284 284 285 282 279 276 276 275 276 275 276 276 276 278 278 278 278 278 278 277 277 277 277 277 277 277 277 277 277 277 277 277 277
295 292 294 297 296 297 294 288 284 283 281 281 283 283 283 279 277 276 276 275 275 275 275 276 276 277 277 276 276 276 276 276 276 276 276 276 275 275 275 275 275 275 275 275
294 292 297 299 296 297 299 288 289 288 289 280 283 282 284 281 282 279 276 275 275 274 274 275 275 276 276 276 275 275 275 274 274 274 274 274 274 274 274 274 274 274 274 274
295 292 295 296 300 299 295 289 289 287 294 281 280 283 285 287 284 279 273 274 274 274 275 275 275 275 275 275 275 274 274 274 273 273 273 273 273 273 273 273 274 274 274 273
290 290 298 298 299 298 289 290 291 297 298 283 281 279 283 285 278 272 274 274 274 275 275 275 275 275 275 274 274 274 273 273 273 273 273 273 273 273 273 273 273 273 273 273
296 296 293 294 298 298 288 290 293 290 280 279 277 277 275 272 270 270 270 273 274 274 274 274 274 274 274 274 274 273 272 272 273 273 273 273 273 273 273 273 273 273 273 273
297 298 302 301 302 288 285 285 280 280 281 279 279 277 276 276 274 275 275 275 275 275 274 274 273 272 272 273 272 272 271 272 273 273 272 272 273 273 273 273 273 273 272 272
296 294 293 293 291 286 283 283 282 282 284 284 281 279 278 277 276 276 275 275 274 274 273 273 272 272 271 272 272 271 271 271 272 272 272 272 272 272 272 272 272 272 271 271
297 293 295 294 290 287 286 286 284 284 284 283 280 279 279 278 277 276 276 275 274 274 273 272 272 271 271 271 271 271 271 272 272 271 271 271 270 270 271 271 271 271 272 272
293 295 296 298 294 292 292 287 285 286 284 282 281 280 280 279 277 277 275 275 274 273 272 272 271 271 271 271 271 271 272 272 272 272 271 270 270 270 270 269 269 269 269 270
Wind_Speed
2 3 6 11 9 11 15 16 20 18 17 13 12 12 8 12 5 12 14 14 16 17 19 26 28 12 7 8 19 18 17 17 16 16 13 16 9 4 11 22 16 19 33 29
1 5 10 12 13 14 15 21 20 15 11 12 11 17 15 8 17 16 16 17 18 18 19 20 26 25 15 11 18 17 18 15 17 18 14 10 11 7 9 10 18 20 23 29
2 6 12 14 14 16 17 18 14 19 21 18 12 4 10 11 15 17 17 18 19 20 21 18 18 20 24 21 17 17 18 15 18 18 14 14 11 8 14 13 19 24 25 26
5 8 14 13 13 19 18 15 20 20 9 5 7 3 15 14 17 21 21 22 23 25 21 17 15 16 19 23 16 17 16 18 20 19 17 18 13 15 13 22 26 24 30 25
3 10 12 8 15 22 7 24 19 18 8 1 1 1 6 13 18 24 22 25 25 25 15 10 11 15 18 23 23 15 13 15 14 11 18 17 15 17 15 16 19 23 26 25
6 6 3 7 17 12 26 17 10 2 3 0 9 1 8 9 15 21 22 26 26 25 22 18 13 15 17 17 16 9 8 14 14 12 14 16 20 20 15 11 14 14 13 13
11 4 6 10 16 6 19 16 4 3 3 3 6 9 6 14 14 15 20 22 23 22 22 22 22 20 17 21 16 17 21 25 20 30 27 25 27 27 27 24 26 24 24 23
6 7 6 6 5 10 10 5 3 4 5 4 8 4 5 16 11 13 14 16 21 27 23 22 22 25 25 24 23 23 26 24 20 34 31 34 35 35 35 34 33 35 33 32
6 5 7 8 5 16 9 5 8 4 5 3 3 5 4 23 16 18 21 25 26 24 23 22 22 27 26 27 24 25 26 21 29 33 36 39 38 37 39 42 44 46 40 37
2 6 5 3 7 9 5 6 3 3 5 6 3 3 4 22 23 23 24 23 22 22 22 20 20 27 28 28 25 26 26 25 32 39 40 39 35 36 41 49 47 50 44 43
1 2 6 6 6 8 8 5 4 2 2 2 3 2 3 10 14 17 16 18 18 19 18 17 20 26 26 31 29 25 19 29 40 44 44 43 42 38 40 47 51 51 50 53
2 2 4 3 5 5 9 7 4 2 6 1 3 1 2 6 10 12 15 16 16 16 15 16 21 25 27 29 29 19 16 47 41 46 49 47 42 39 42 47 44 50 54 51
4 3 4 4 2 3 4 10 9 4 2 3 3 3 7 12 12 12 12 13 13 15 16 16 20 23 26 29 23 12 28 40 42 46 45 43 39 39 45 44 40 49 56 46
2 1 3 4 6 1 3 7 12 5 2 6 1 10 13 14 13 13 13 13 12 13 16 16 15 22 26 23 14 17 41 39 42 44 43 42 38 38 43 43 39 42 49 47
2 2 1 5 3 2 2 1 6 5 4 2 7 10 9 8 8 10 11 11 13 15 17 17 15 21 23 15 15 33 38 39 37 40 40 39 38 39 40 39 40 42 48 44
1 2 3 4 5 4 5 4 2 4 5 4 2 2 10 6 6 11 10 12 14 13 15 16 19 18 15 15 25 34 35 34 34 35 37 36 37 35 33 36 37 43 43 43
4 3 3 4 4 3 4 2 2 0 1 3 5 4 7 9 11 12 12 12 12 13 14 15 14 16 17 20 26 31 32 32 33 34 35 34 33 34 32 35 36 39 36 35
4 3 1 4 3 5 5 1 7 6 3 2 1 3 1 1 2 8 9 11 11 12 13 13 16 18 21 24 27 31 32 31 30 33 32 30 31 33 32 35 38 34 31 34
3 2 3 2 1 2 1 4 5 5 3 4 3 0 1 3 3 6 10 9 9 9 11 13 17 17 20 25 26 30 30 28 31 32 32 32 34 34 34 34 30 27 31 29
4 3 1 2 1 2 4 3 4 3 3 7 5 4 4 3 4 3 3 4 5 8 11 12 14 18 24 23 23 27 26 28 29 29 29 30 31 31 30 28 28 27 28 27
2 2 3 2 3 5 3 7 6 4 5 7 7 5 3 2 2 3 5 3 4 6 9 11 15 19 19 20 25 25 25 25 23 27 29 29 29 29 28 27 26 26 25 25
6 5 4 1 1 6 6 6 6 5 3 6 5 5 4 5 5 3 2 3 3 5 8 10 15 16 14 17 22 22 23 20 24 27 28 28 26 24 25 25 23 21 23 25
2 5 3 6 4 2 4 3 2 4 7 6 7 6 9 10 6 7 5 8 9 8 7 8 13 17 17 17 19 23 20 22 23 24 24 22 22 22 21 20 20 22 21 22
4 3 2 4 2 4 5 2 4 4 5 12 9 13 12 10 11 9 9 10 10 9 9 10 12 15 16 16 19 21 20 19 20 21 20 19 20 19 19 19 19 21 21 19
3 6 5 5 1 2 5 8 10 7 9 11 15 13 13 11 10 9 7 10 11 11 11 11 14 16 15 16 18 18 17 15 19 19 18 17 17 17 18 19 18 18 19 16
6 8 6 6 9 6 7 16 17 15 18 17 16 13 15 16 10 14 11 15 16 15 14 14 14 16 16 16 17 15 14 13 13 14 14 13 13 12 12 11 11 12 11 11
Wind_Direction
316 297 0 331 321 299 293 307 307 304 302 2 326 322 311 26 32 27 10 355 346 336 331 329 333 289 288 291 278 275 272 270 275 280 248 250 234 249 147 182 215 170 184 175
56 30 351 318 295 314 321 313 305 302 335 319 305 305 300 348 23 10 7 356 339 330 324 319 317 323 318 281 270 267 268 273 280 268 239 231 223 212 203 148 183 198 167 172
346 334 331 335 334 327 320 302 315 312 317 288 251 9 53 36 22 11 9 351 339 325 310 303 301 304 307 293 269 264 265 275 277 254 229 237 186 143 200 190 194 175 185 172
290 328 346 340 318 340 315 336 310 301 319 296 37 141 33 12 3 6 359 346 336 324 294 280 282 282 287 292 272 267 277 289 291 237 214 201 184 152 172 180 195 189 187 180
317 319 332 320 336 331 309 313 301 289 261 256 122 138 9 20 358 352 348 340 335 330 334 245 261 275 284 292 303 309 315 312 287 241 216 196 162 146 170 186 169 178 188 184
281 277 350 352 332 320 335 314 298 202 124 266 41 158 31 15 355 341 343 340 338 340 352 359 321 271 265 277 293 55 44 52 66 136 141 138 116 112 115 121 105 104 124 145
317 78 14 10 334 360 345 353 356 20 29 44 14 63 65 16 6 346 339 332 339 348 0 2 6 8 40 45 54 61 62 56 59 88 88 90 99 108 100 94 92 81 77 83
353 343 26 342 47 330 346 37 55 346 346 321 40 20 122 35 7 351 344 343 351 4 358 5 8 10 21 39 44 60 64 63 69 73 74 77 83 86 88 87 82 77 72 73
347 293 346 47 21 18 323 29 290 274 211 266 83 25 208 353 354 358 359 2 3 358 359 2 12 15 20 28 39 52 63 69 72 79 76 74 79 84 87 87 85 86 82 80
353 296 314 96 7 25 10 337 4 326 17 338 74 88 282 342 340 351 358 1 355 357 2 8 15 15 21 27 38 49 59 70 75 77 74 72 75 79 85 90 88 91 91 85
73 179 301 39 31 27 5 17 322 238 92 260 308 259 26 334 344 347 349 355 356 358 0 8 16 18 26 31 36 45 56 76 73 74 74 71 67 70 79 83 85 85 86 84
80 285 288 212 200 73 85 351 330 45 321 239 211 278 77 24 2 346 358 354 354 5 5 17 19 24 29 31 35 31 58 71 72 74 73 72 72 73 75 75 80 87 85 83
327 336 315 336 269 102 35 358 341 287 276 295 325 36 35 25 2 358 360 359 359 6 16 24 21 25 28 26 29 37 69 73 74 76 77 76 75 76 76 76 78 84 87 83
246 303 145 186 222 210 23 342 354 357 58 318 348 295 354 2 2 350 358 2 8 14 19 26 18 27 26 21 27 57 67 70 74 76 76 75 74 74 77 79 75 78 84 82
50 247 138 276 237 225 130 352 14 11 343 59 310 316 9 1 1 3 346 5 17 24 23 22 21 28 13 18 49 64 69 70 74 77 76 75 75 76 79 81 81 80 83 81
46 289 128 270 240 164 313 74 73 40 342 306 300 300 360 10 28 33 9 16 14 23 26 19 21 12 18 37 60 67 70 71 75 77 78 79 78 78 78 79 78 78 78 78
322 338 5 292 181 148 5 316 91 340 269 290 24 306 355 354 22 25 13 14 21 16 24 19 7 16 30 47 59 64 69 73 74 76 76 77 79 79 77 79 80 78 75 76
323 333 346 280 77 37 243 46 138 139 217 264 264 334 293 124 82 56 29 13 19 13 12 6 0 24 37 52 61 69 70 72 73 74 76 79 82 82 81 81 78 80 80 77
166 296 306 54 276 209 161 222 175 148 288 194 161 297 33 210 251 60 41 26 11 358 359 6 24 34 54 64 71 77 76 77 75 73 77 81 85 84 82 79 82 82 81 79
165 191 303 343 116 226 210 217 129 112 348 189 165 202 175 179 37 280 62 49 39 35 30 45 56 65 70 73 81 80 76 74 69 75 84 92 92 90 88 87 82 82 80 78
226 230 222 238 270 292 179 153 151 84 220 159 170 180 193 211 240 146 113 89 78 69 78 76 67 66 73 85 86 75 76 72 87 94 93 91 88 89 89 87 81 77 75 72
173 161 212 60 33 305 155 112 164 182 36 137 130 149 128 132 133 127 165 193 156 118 112 105 95 82 84 93 96 83 76 95 98 96 90 85 86 86 81 79 76 72 68 64
276 192 197 180 215 198 198 156 238 145 139 174 137 144 146 144 171 170 181 184 179 156 128 116 106 101 95 97 101 97 98 100 97 96 95 91 84 79 79 77 74 67 60 54
232 147 216 37 245 209 189 144 156 183 148 151 145 153 164 162 166 177 175 173 167 156 136 128 117 103 94 101 104 105 111 112 109 102 97 90 85 83 79 73 70 68 55 50
187 137 192 260 166 40 234 194 169 178 146 144 151 164 174 166 175 167 170 166 160 155 147 143 132 124 120 125 122 121 119 118 106 99 93 88 85 77 74 67 58 60 59 40
183 187 176 220 186 174 197 179 166 165 170 163 159 167 180 172 167 166 162 169 168 165 161 152 146 140 136 136 131 128 124 118 108 101 93 84 80 77 76 70 69 62 57 51